[[{"header":{"parameterUnit":"m.s-1","parameterCategory":1,"la1":30.2991,"la2":30.254,"lo1":-89.0895,"lo2":-89.0444,"dy":0.0017,"dx":0.0017,"nx":28,"ny":28,"refTime":"2024-12-13T03:00:00:Z","depth":0,"parameterNumber":2,"parameterNumberName":"U-component_of_WINDS"},"data":[0,0,0,0,0,0,0,0,0,0,0,0,0,0,0,0,0,0,0,0,0,0,0,0,0,0,0,0,0,0,0,0,0,0,0,0,0,0,0,0,0,0,0,0,0,0,0,0,0,0,0,0,0,0,0,0,0,0,-5.0141,-5.0142,0,-5.0221,-5.0222,-5.0223,-5.0148,-5.0145,-5.0142,-5.0139,-5.0223,-5.0228,-5.0233,0,0,0,0,0,0,0,0,0,0,0,0,0,-4.9927,-4.9932,-5.0141,-5.0142,-5.0143,-5.0221,-5.0222,-5.0223,-5.0149,-5.0145,-5.0141,-5.0138,-5.0222,-5.0228,-5.0234,0,0,0,0,0,0,0,0,0,0,0,0,0,-5.0015,-4.9933,-5.0141,-5.0115,-5.0114,-5.0221,-5.0222,-5.0224,-5.015,-5.0145,-5.014,-5.0136,-5.022,-5.0227,-5.0234,-5.0372,0,0,-5.0258,-5.0261,0,0,0,0,0,0,0,0,-5.001,-5.0023,-5.0118,-5.0117,-5.0116,-5.017,-5.0177,-5.0273,-5.0151,-5.0136,-5.0139,-5.0134,-5.0209,-5.0218,-5.0242,-5.0375,-5.0379,-5.0258,-5.0263,-5.0266,-5.0268,0,0,0,0,0,0,0,-5.0004,-5.0019,-5.0173,-5.012,-5.0118,-5.0101,-5.0108,-5.0195,-5.0197,-5.0137,-5.0132,-5.0142,-5.0208,-5.0235,-5.0244,-5.038,-5.0258,-5.0265,-5.0269,-5.0272,-5.0632,-5.0637,0,0,0,0,0,0,-5.0001,-5.0015,-5.017,-5.0175,-5.0051,-5.0109,-5.0117,-5.0157,-5.0196,-5.0197,-5.0146,-5.0138,-5.0225,-5.0235,-5.0247,-5.041,-5.0266,-5.0273,-5.0277,-5.0627,-5.0633,-5.0638,0,0,0,0,0,0,-4.9996,-5.0015,-5.0167,-5.0094,-5.0112,-5.0117,-5.0163,-5.0161,-5.0188,-5.0203,-5.0203,-5.0173,-5.0222,-5.0236,-5.0341,-5.0412,-5.0277,-5.0283,-5.0621,-5.0629,-5.0636,-5.0738,0,0,0,0,0,0,-4.999,-5.0014,-5.0065,-5.0095,-5.0116,-5.0259,-5.0167,-5.0166,-5.0201,-5.0192,-5.0228,-5.023,-5.0219,-5.033,-5.0349,-5.042,-5.0289,-5.0615,-5.0625,-5.0633,-5.0728,-5.0748,-5.0765,0,0,0,0,0,-4.9983,-5.0091,-5.0068,-5.0087,-5.018,-5.0264,-5.0275,-5.026,-5.0207,-5.0259,-5.0269,-5.0229,-5.0402,-5.0342,-5.0362,-5.0436,-5.061,-5.0622,-5.0633,-5.072,-5.0744,-5.0765,0,0,0,0,0,0,-5.0068,-5.0094,-5.0069,-5.0189,-5.0225,-5.0251,-5.0315,-5.0286,-5.0337,-5.0327,-5.0306,-5.0315,-5.0426,-5.0442,-5.0375,-5.0572,-5.0498,-5.0514,-5.0557,-5.058,-5.0598,-5.0591,-5.0296,0,0,0,0,0,-5.0101,-5.0166,-5.0186,-5.029,-5.0309,-5.031,-5.0346,-5.0331,-5.0367,-5.0382,-5.0399,-5.0437,-5.0499,-5.0541,-5.0599,-5.0731,-5.0739,-5.0793,-5.0811,-5.0826,-5.0839,-5.0912,-5.0936,-5.0676,-5.0675,-5.0675,0,0,-5.0169,-5.0191,-5.0234,-5.0308,-5.0333,-5.0403,-5.0323,-5.0399,-5.045,-5.0394,-5.0494,-5.0509,-5.0549,-5.0669,-5.0722,-5.0685,-5.0914,-5.084,-5.0852,-5.0857,-5.0926,-5.095,-5.0972,-5.0683,-5.0682,-5.0681,0,0,-5.0328,-5.0352,-5.0442,-5.047,-5.051,-5.051,-5.0532,-5.0564,-5.0571,-5.0672,-5.0631,-5.0693,-5.0801,-5.0832,-5.0862,-5.1038,-5.1003,-5.1058,-5.1153,-5.1223,-5.1244,-5.1262,-5.1324,-5.1347,-5.1071,-5.1072,-5.1072,0,-5.0408,-5.0509,-5.0492,-5.0571,-5.0606,-5.0559,-5.0651,-5.0679,-5.0737,-5.0762,-5.072,-5.0857,-5.0881,-5.1007,-5.105,-5.1076,-5.1102,-5.1052,-5.1242,-5.126,-5.1277,-5.1336,-5.136,-5.1078,-5.1077,-5.1076,-5.1076,0,-5.0605,-5.0677,-5.0745,-5.0802,-5.0845,-5.093,-5.0927,-5.0972,-5.0955,-5.0961,-5.1065,-5.1093,-5.1157,-5.1186,-5.117,-5.1312,-5.1288,-5.1245,-5.1169,-5.1308,-5.1364,-5.1386,-5.1087,-5.1085,-5.1083,-5.1081,0,0,-5.0817,-5.0865,-5.0891,-5.0917,-5.096,-5.1015,-5.11,-5.1162,-5.1202,-5.1245,-5.1316,-5.141,-5.1371,-5.1406,-5.1393,-5.1456,-5.1593,-5.1405,-5.1406,-5.1439,-5.1752,-5.1783,-5.181,-5.1572,-5.1576,-5.158,-5.1748,0,-5.0977,-5.1122,-5.1111,-5.1249,-5.1316,-5.1274,-5.1348,-5.1383,-5.1392,-5.1451,-5.146,-5.1527,-5.1471,-5.1492,-5.1552,-5.1564,-5.1656,-5.1552,-5.1638,-5.1641,-5.1627,-5.1838,-5.1871,-5.2029,-5.177,-5.1774,-5.1776,0,-5.1182,-5.1232,-5.1377,-5.1412,-5.1439,-5.1506,-5.1563,-5.162,-5.1661,-5.1662,-5.1703,-5.1681,-5.1768,-5.1692,-5.1813,-5.1742,-5.1778,-5.179,-5.1795,-5.1801,-5.1716,-5.1849,-5.2079,-5.2102,-5.181,-5.1808,-5.1805,0,-5.1321,-5.1425,-5.1525,-5.1549,-5.1593,-5.1641,-5.1661,-5.1697,-5.1736,-5.1788,-5.1813,-5.1874,-5.1907,-5.1956,-5.1952,-5.1897,-5.2075,-5.1998,-5.2079,-5.208,-5.2116,-5.2114,-5.2353,-5.2142,-5.2142,-5.2141,-5.2141,0,-5.15,-5.159,-5.1589,-5.165,-5.1751,-5.1739,-5.1839,-5.1854,-5.1887,-5.1952,-5.1921,-5.1983,-5.1975,-5.2038,-5.2035,-5.2136,-5.2151,-5.2156,-5.2154,-5.2158,-5.2157,-5.2179,-5.2168,-5.2147,-5.2146,-5.2145,-5.2144,0,-5.167,-5.1673,-5.178,-5.1813,-5.1824,-5.1897,-5.1926,-5.1985,-5.1992,-5.2075,-5.2094,-5.2106,-5.2178,-5.218,-5.2263,-5.2262,-5.2384,-5.2371,-5.237,-5.2367,-5.2448,-5.244,-5.2708,-5.2743,-5.251,-5.2513,-5.2515,0,-5.1783,-5.1852,-5.1893,-5.1934,-5.1958,-5.2025,-5.2065,-5.2057,-5.21,-5.2154,-5.2207,-5.2277,-5.2332,-5.245,-5.2467,-5.2531,-5.2518,-5.2608,-5.2527,-5.253,-5.2519,-5.2514,-5.2521,-5.2623,-5.2626,-5.2628,-5.2629,0,-5.1983,-5.1982,-5.2041,-5.2102,-5.2151,-5.2198,-5.2242,-5.2278,-5.2275,-5.2326,-5.24,-5.2443,-5.2529,-5.2599,-5.2662,-5.2684,-5.2657,-5.2655,-5.2677,-5.2681,-5.2678,-5.268,-5.2412,-5.2648,-5.2646,-5.2645,-5.2644,-5.2643,-5.2128,-5.2187,-5.2226,-5.2294,-5.2326,-5.2369,-5.2426,-5.2442,-5.2503,-5.2572,-5.2564,-5.2647,-5.2689,-5.277,-5.2799,-5.2864,-5.2833,-5.2865,-5.2873,-5.288,-5.2889,-5.2669,-5.2876,-5.2875,-5.2875,-5.2874,-5.2874,0,-5.2325,-5.2349,-5.2412,-5.2474,-5.2528,-5.2499,-5.2547,-5.2594,-5.2667,-5.2708,-5.2764,-5.285,-5.2919,-5.2942,-5.3009,-5.3058,-5.3047,-5.3075,-5.3071,-5.3077,-5.2913,-5.2887,-5.3083,-5.3083,-5.3083,-5.3083,-5.3083,-5.3083,-5.2434,-5.2534,-5.2538,-5.2654,-5.2678,-5.2758,-5.2788,-5.2828,-5.2861,-5.2959,-5.3016,-5.3031,-5.3066,-5.3136,-5.3198,-5.3203,-5.3229,-5.3263,-5.3263,-5.3109,-5.3088,-5.3068,-5.3043,-5.3269,-5.3269,-5.3421,-5.3423,-5.3424]},{"header":{"parameterUnit":"m.s-1","parameterCategory":1,"la1":30.2991,"la2":30.254,"lo1":-89.0895,"lo2":-89.0444,"dy":0.0017,"dx":0.0017,"nx":28,"ny":28,"refTime":"2024-12-13T03:00:00:Z","depth":0,"parameterNumber":3,"parameterNumberName":"V-component_of_WINDS"},"data":[0,0,0,0,0,0,0,0,0,0,0,0,0,0,0,0,0,0,0,0,0,0,0,0,0,0,0,0,0,0,0,0,0,0,0,0,0,0,0,0,0,0,0,0,0,0,0,0,0,0,0,0,0,0,0,0,0,0,0.4362,0.4363,0,0.4408,0.4409,0.4409,0.4424,0.4424,0.4424,0.4423,0.4471,0.4472,0.4473,0,0,0,0,0,0,0,0,0,0,0,0,0,0.429,0.4292,0.4362,0.4363,0.4363,0.4408,0.4409,0.4409,0.4424,0.4424,0.4424,0.4423,0.447,0.4472,0.4474,0,0,0,0,0,0,0,0,0,0,0,0,0,0.4327,0.4292,0.4362,0.4376,0.4378,0.4408,0.4409,0.4409,0.4424,0.4424,0.4423,0.4423,0.447,0.4472,0.4474,0.4493,0,0,0.448,0.4481,0,0,0,0,0,0,0,0,0.4325,0.433,0.4374,0.4375,0.4377,0.441,0.4401,0.4438,0.4424,0.4407,0.4423,0.4423,0.4451,0.4454,0.4464,0.4496,0.4498,0.4481,0.4482,0.4483,0.4484,0,0,0,0,0,0,0,0.4323,0.4328,0.438,0.4374,0.4376,0.4381,0.4386,0.4408,0.443,0.4408,0.4409,0.4414,0.4452,0.4462,0.4465,0.4498,0.4481,0.4483,0.4484,0.4485,0.4552,0.4553,0,0,0,0,0,0,0.4318,0.4326,0.4379,0.4382,0.435,0.4383,0.4388,0.44,0.443,0.4434,0.4415,0.4415,0.4458,0.4462,0.4467,0.4494,0.4483,0.4485,0.4486,0.4552,0.4552,0.4553,0,0,0,0,0,0,0.4316,0.4322,0.4377,0.4354,0.4362,0.4384,0.4397,0.4401,0.4411,0.4435,0.4439,0.4421,0.4458,0.4464,0.4487,0.4496,0.4486,0.4488,0.4551,0.4552,0.4552,0.4547,0,0,0,0,0,0,0.4314,0.4321,0.4328,0.4354,0.4363,0.4396,0.4398,0.4402,0.4414,0.4415,0.4441,0.4445,0.4458,0.4484,0.449,0.4498,0.449,0.455,0.4551,0.4552,0.4546,0.4547,0.4548,0,0,0,0,0,0.4311,0.4324,0.4328,0.4335,0.4372,0.4397,0.4402,0.4416,0.4415,0.4423,0.4439,0.4444,0.4494,0.4486,0.4493,0.4502,0.455,0.4551,0.4552,0.4546,0.4547,0.4548,0,0,0,0,0,0,0.4298,0.4328,0.4333,0.4354,0.4373,0.4399,0.4409,0.4416,0.4435,0.4435,0.4453,0.4459,0.4482,0.4494,0.4485,0.4524,0.4522,0.4525,0.4515,0.4516,0.4517,0.4514,0.4491,0,0,0,0,0,0.4297,0.4315,0.434,0.4357,0.4366,0.4386,0.4397,0.4407,0.4427,0.4435,0.4452,0.4472,0.4492,0.4505,0.4524,0.4548,0.4555,0.4558,0.4559,0.4559,0.4562,0.4578,0.458,0.4556,0.4556,0.4556,0,0,0.4296,0.4315,0.4325,0.4354,0.437,0.4389,0.4392,0.4411,0.4426,0.4438,0.4462,0.4476,0.4499,0.4523,0.4535,0.4534,0.457,0.4561,0.4561,0.4563,0.4579,0.4582,0.4584,0.4557,0.4557,0.4557,0,0,0.4305,0.432,0.4337,0.4353,0.4377,0.439,0.4395,0.442,0.443,0.4455,0.4465,0.4483,0.4517,0.4534,0.4547,0.4565,0.4572,0.4571,0.4575,0.4591,0.4593,0.4595,0.4604,0.4606,0.4573,0.4573,0.4573,0,0.4301,0.4329,0.4344,0.4364,0.4378,0.439,0.4409,0.4424,0.4453,0.4462,0.4462,0.4506,0.4522,0.4553,0.4558,0.4567,0.4574,0.4568,0.4591,0.4593,0.4595,0.4604,0.4607,0.4573,0.4573,0.4573,0.4573,0,0.4324,0.4343,0.4354,0.4383,0.4398,0.4417,0.4437,0.445,0.446,0.4474,0.4501,0.4521,0.4546,0.4554,0.4562,0.4586,0.4586,0.4588,0.4586,0.4597,0.4606,0.4609,0.4572,0.4573,0.4573,0.4573,0,0,0.4323,0.4363,0.4367,0.4381,0.441,0.4426,0.4446,0.4472,0.4484,0.4504,0.4523,0.4553,0.4556,0.4571,0.4582,0.4596,0.4612,0.4597,0.4598,0.4601,0.4643,0.4642,0.4645,0.4617,0.4618,0.4618,0.4642,0,0.4336,0.4373,0.4389,0.4419,0.4439,0.4453,0.4471,0.4492,0.4506,0.4526,0.4542,0.4564,0.4565,0.4575,0.4589,0.4607,0.4621,0.4606,0.4636,0.4637,0.4631,0.4649,0.4648,0.4669,0.4645,0.4645,0.4646,0,0.4356,0.4378,0.441,0.444,0.4449,0.4464,0.4491,0.4509,0.4533,0.4543,0.4562,0.4573,0.4597,0.4593,0.4628,0.4617,0.463,0.4642,0.4643,0.4647,0.4643,0.4656,0.4676,0.4679,0.4651,0.465,0.465,0,0.4355,0.4392,0.4417,0.4429,0.4463,0.4475,0.449,0.4514,0.4529,0.4553,0.4563,0.4589,0.4603,0.4623,0.4642,0.4637,0.4675,0.4673,0.4686,0.4685,0.4693,0.4693,0.4717,0.47,0.47,0.47,0.47,0,0.4368,0.4388,0.4418,0.4433,0.4456,0.4475,0.4498,0.4514,0.4536,0.4556,0.457,0.4588,0.4611,0.4633,0.4648,0.4676,0.4681,0.4691,0.4695,0.4691,0.469,0.4701,0.47,0.4701,0.47,0.47,0.47,0,0.4371,0.4391,0.4419,0.4451,0.4459,0.4475,0.4502,0.4519,0.4535,0.4561,0.4568,0.4593,0.462,0.4641,0.4675,0.4686,0.4716,0.4719,0.4708,0.471,0.4722,0.4722,0.4756,0.4762,0.4739,0.4739,0.4739,0,0.4378,0.4394,0.4428,0.4442,0.4458,0.448,0.4497,0.4518,0.4534,0.4565,0.4579,0.4607,0.463,0.4673,0.4696,0.4723,0.4728,0.4738,0.4732,0.4728,0.4731,0.473,0.4733,0.4739,0.4739,0.4739,0.474,0,0.439,0.4401,0.4423,0.4451,0.4471,0.4493,0.4516,0.4527,0.4553,0.4571,0.4599,0.4618,0.4655,0.4683,0.4714,0.473,0.474,0.4741,0.4746,0.4742,0.4736,0.4742,0.4711,0.4741,0.474,0.474,0.474,0.474,0.4397,0.4413,0.444,0.4466,0.4486,0.4508,0.4526,0.4545,0.4569,0.4601,0.4612,0.4642,0.4669,0.4711,0.4729,0.4753,0.4753,0.476,0.4762,0.4763,0.4764,0.4731,0.4759,0.4759,0.4759,0.4759,0.4759,0,0.4411,0.443,0.4454,0.4487,0.4508,0.4516,0.4543,0.456,0.4586,0.4611,0.4635,0.4669,0.4698,0.4724,0.4754,0.4769,0.4775,0.4776,0.4776,0.4781,0.4761,0.4755,0.4772,0.4772,0.4772,0.4772,0.4772,0.4772,0.4421,0.4449,0.4463,0.4503,0.4522,0.4552,0.4567,0.4588,0.4608,0.4646,0.467,0.4687,0.4713,0.4746,0.4774,0.4781,0.4792,0.4793,0.4801,0.4783,0.4781,0.478,0.4774,0.4795,0.4795,0.4819,0.4819,0.482]}]]